STARLINK-5727 (55587 NORAD) Tracking and Keplerian Element Data

This shows tracking and keplerian element data for the satellite.

Feedback or suggestion? Click here.




ElementValue
Catalog55587
NameSTARLINK-5727
Epoch Orbit130
Epoch Day84.91667824
Epoch Year2023
RAAN109.9972
Inclination42.9971
Eccentricity0.0001403
Argument of Perigee265.343
Mean Anonmoly123.5351
Mean Motion15.24547782
Decay Rate-0.00856942
L11 55587U 23020U 23084.91667824 -.00856942 00000+0 -37090-1 0 9992
L22 55587 42.9971 109.9972 0001403 265.3430 123.5351 15.24547782 1301



Live tracking and technical data element details for STARLINK-5727 (NORAD 55587). STARLINK-5727 can be tracked NOW for your location showing map with azimuth and elevation plus other details from your city location.







IsCatalogInMostPopularTable: catalog: 55587, numindb: -1

Insert: records affected: 1


GetName: 55587 STARLINK-5727

Hit Count: inserted at: Tue, 28 Mar 2023 01:26:33 GMT